Regional Weather Roundup
Issued by NWS Goodland, KS

Home | Current Version | Previous Version | Text Only | Print | Product List | Glossary Off
Versions: 1 2 3 4 5 6 7 8 9 10 11 12 13 14 15 16 17 18 19 20 21 22 23 24 25 26 27 28 29 30 31 32 33 34 35 36 37 38 39 40 41 42 43 44 45 46 47 48 49 50

000
ASUS43 KGLD 041808
RWRGLD

GOODLAND FORECAST AREA HOURLY WEATHER ROUNDUP
NATIONAL WEATHER SERVICE GOODLAND KS
1200 PM MDT FRI SEP 04 2015

...OFFICIAL OBSERVATIONS...

CITY           SKY/WX    TMP DP  RH WIND       PRES   REMARKS
GOODLAND KS    SUNNY     90  48  23 W10       29.93F
HILL CITY KS   SUNNY     94  58  29 SW12      29.85F
IMPERIAL NEB   MOSUNNY   83  55  38 SW7       29.90S
MCCOOK NEB     MOSUNNY   87  63  44 SW6       29.86S
AKRON CO       MOSUNNY   87  42  20 VRB3      29.99F
BURLINGTON CO  SUNNY     89  45  21 VRB3      29.97F
LIMON CO       SUNNY     84  42  22 E9        30.04F
$$

...UNOFFICIAL OBSERVATIONS...

CITY           SKY/WX    TMP DP  RH WIND       PRES   REMARKS
COLBY KS       SUNNY     91  57  31 SW6       29.91F
GOVE KS          N/A     91  32  12 MISG        N/A
LENORA KS        N/A     88  32  13 MISG        N/A
NORTON KS      SUNNY     90  54  29 SE10      29.84
SHARON SPRINGS   N/A     89  57  33 CALM        N/A
TRENTON NEB      N/A     88  32  13 CALM        N/A
KIT CARSON CO    N/A     89  52  27 MISG        N/A
YUMA CO          N/A     87  47  24 CALM        N/A
$$


USA.gov is the U.S. government's official web portal to all federal, state and local government web resources and services.